{"data":{"norad_id":52458,"epoch":"2026-09-20T04:00:03.000096Z","epoch_age_seconds":88494,"freshness":"FRESH","line1":"1 52458U 22049H   26263.16670139 -.00025057  00000+0 -73241-3 0  9993","line2":"2 52458  53.1605 271.0212 0001379  81.2835 351.5332 15.34421265  5761","mean_motion":15.34421265,"eccentricity":0.0001379,"inclination_deg":53.1605,"raan_deg":271.0212,"arg_perigee_deg":81.2835,"mean_anomaly_deg":351.5332,"bstar":-0.00073241,"rev_number":576,"period_min":93.846457478546,"perigee_km":461.69669372226,"apogee_km":463.58338002903,"semimajor_km":6840.7770368756,"source":"CELESTRAK","updated_at":"2026-09-20T09:00:40.032908Z"}}